Time+03,TemperatureF,Dew PointF,Humidity,Sea Level PressureIn,VisibilityMPH,Wind Direction,Wind SpeedMPH,Gust SpeedMPH,PrecipitationIn,Events,Conditions,WindDirDegrees,DateUTC
12:55 AM,75.9,60.6,59,29.83,6.2,SSW,5.8,-,N/A,,Clear,200,2012-10-12 21:55:00
1:55 AM,74.7,54.7,50,29.83,6.2,WSW,5.8,-,N/A,,Clear,250,2012-10-12 22:55:00
2:55 AM,73.8,55.6,53,29.82,6.2,West,6.9,-,N/A,,Clear,270,2012-10-12 23:55:00
3:55 AM,73.2,40.8,31,29.82,6.2,West,5.8,-,N/A,,Clear,270,2012-10-13 00:55:00
4:55 AM,72.3,37.0,28,29.84,6.2,WSW,6.9,-,N/A,,Clear,240,2012-10-13 01:55:00
5:55 AM,71.6,44.6,38,29.86,6.2,WSW,6.9,-,N/A,,Clear,250,2012-10-13 02:55:00
7:55 AM,85.6,60.1,42,29.89,6.2,WSW,8.1,-,N/A,,Clear,250,2012-10-13 04:55:00
8:55 AM,93.6,40.6,16,29.89,6.2,WSW,10.4,-,N/A,,Clear,250,2012-10-13 05:55:00
9:55 AM,97.5,37.4,12,29.89,6.2,West,10.4,-,N/A,,Clear,270,2012-10-13 06:55:00
10:55 AM,100.2,37.0,11,29.87,6.2,West,11.5,-,N/A,,Clear,280,2012-10-13 07:55:00
11:55 AM,102.6,31.3,8,29.85,6.2,NW,12.7,-,N/A,,Clear,310,2012-10-13 08:55:00
12:55 PM,103.3,28.6,7,29.83,6.2,WNW,11.5,-,N/A,,Clear,300,2012-10-13 09:55:00
1:55 PM,103.3,31.8,8,29.81,6.2,NW,12.7,-,N/A,,Clear,320,2012-10-13 10:55:00
2:55 PM,102.0,38.8,11,29.81,6.2,NW,11.5,-,N/A,,Clear,320,2012-10-13 11:55:00
3:55 PM,100.9,42.3,13,29.81,6.2,NNW,16.1,-,N/A,,Clear,340,2012-10-13 12:55:00
4:55 PM,96.1,62.2,33,29.83,6.2,NNE,6.9,-,N/A,,Clear,20,2012-10-13 13:55:00
5:55 PM,93.2,63.9,38,29.84,6.2,North,3.5,-,N/A,,Clear,10,2012-10-13 14:55:00
6:55 PM,91.2,49.3,24,29.86,6.2,North,4.6,-,N/A,,Clear,350,2012-10-13 15:55:00
7:55 PM,84.7,51.8,32,29.87,6.2,NNW,9.2,-,N/A,,Clear,330,2012-10-13 16:55:00
8:55 PM,82.8,59.0,44,29.87,6.2,North,4.6,-,N/A,,Clear,360,2012-10-13 17:55:00
9:55 PM,79.5,56.8,46,29.87,6.2,WNW,6.9,-,N/A,,Clear,290,2012-10-13 18:55:00
10:55 PM,77.9,58.5,51,29.87,6.2,WNW,8.1,-,N/A,,Clear,300,2012-10-13 19:55:00
11:55 PM,77.5,61.5,58,29.86,6.2,WNW,4.6,-,N/A,,Clear,300,2012-10-13 20:55:00